Meteo pe oră la Dabkowo

Astăzi, 14 Aprilie, Miercuri

Timp Temperatura Precipitaţii Vânt Presiune Umiditate
00:00 +1°C° 0 mm 2 m/s 763 mmHg 89%
01:00 +1°C° 0 mm 2 m/s 762 mmHg 90%
02:00 +2°C° 0 mm 2 m/s 762 mmHg 88%
03:00 +2°C° 0 mm 2 m/s 762 mmHg 86%
04:00 +2°C° 0 mm 2 m/s 762 mmHg 85%
05:00 +3°C° 0 mm 2 m/s 762 mmHg 82%
06:00 +3°C° 0 mm 2 m/s 762 mmHg 80%
07:00 +4°C° 0 mm 2 m/s 762 mmHg 78%
08:00 +4°C° 0 mm 3 m/s 762 mmHg 73%
09:00 +4°C° 0 mm 3 m/s 762 mmHg 68%
10:00 +5°C° 0 mm 4 m/s 762 mmHg 63%
11:00 +6°C° 0 mm 4 m/s 762 mmHg 62%
12:00 +6°C° 0 mm 5 m/s 762 mmHg 60%
13:00 +5°C° 0 mm 6 m/s 762 mmHg 59%
14:00 +5°C° 0 mm 6 m/s 762 mmHg 62%
15:00 +4°C° 0 mm 6 m/s 762 mmHg 65%
16:00 +4°C° 0 mm 6 m/s 762 mmHg 67%
17:00 +3°C° 0 mm 6 m/s 762 mmHg 71%
18:00 +2°C° 0 mm 5 m/s 762 mmHg 74%
19:00 +2°C° 0 mm 5 m/s 762 mmHg 78%
20:00 +1°C° 0 mm 5 m/s 762 mmHg 81%
21:00 +1°C° 0 mm 5 m/s 762 mmHg 84%
22:00 +1°C° 0 mm 5 m/s 762 mmHg 87%
23:00 +1°C° 0.1 mm 5 m/s 762 mmHg 87%

Mâine, 15 Aprilie, Joi

Timp Temperatura Precipitaţii Vânt Presiune Umiditate
00:00 +1°C° 0.1 mm 5 m/s 762 mmHg 87%
01:00 +1°C° 0.1 mm 5 m/s 762 mmHg 87%
02:00 +1°C° 0.3 mm 6 m/s 762 mmHg 90%
03:00 +1°C° 0.3 mm 6 m/s 761 mmHg 93%
04:00 -1°C° 0.3 mm 6 m/s 761 mmHg 96%
05:00 -1°C° 0.4 mm 6 m/s 761 mmHg 96%
06:00 -1°C° 0.4 mm 6 m/s 761 mmHg 96%
07:00 -1°C° 0.4 mm 6 m/s 761 mmHg 96%
08:00 -1°C° 0.2 mm 6 m/s 761 mmHg 96%
09:00 0°C° 0.2 mm 7 m/s 761 mmHg 96%
10:00 0°C° 0.2 mm 7 m/s 761 mmHg 95%
11:00 +2°C° 0.2 mm 6 m/s 761 mmHg 92%
12:00 +2°C° 0.2 mm 6 m/s 761 mmHg 88%
13:00 +3°C° 0.2 mm 6 m/s 761 mmHg 84%
14:00 +5°C° 0.1 mm 5 m/s 761 mmHg 83%
15:00 +5°C° 0.1 mm 5 m/s 761 mmHg 82%
16:00 +6°C° 0.1 mm 4 m/s 760 mmHg 80%
17:00 +6°C° 0 mm 4 m/s 760 mmHg 81%
18:00 +5°C° 0 mm 4 m/s 761 mmHg 82%
19:00 +5°C° 0 mm 4 m/s 761 mmHg 83%
20:00 +5°C° 0 mm 4 m/s 761 mmHg 82%
21:00 +5°C° 0 mm 4 m/s 761 mmHg 80%
22:00 +5°C° 0 mm 4 m/s 761 mmHg 79%
23:00 +3°C° 0 mm 5 m/s 760 mmHg 78%

Poimâine, 16 Aprilie, Vineri

Timp Temperatura Precipitaţii Vânt Presiune Umiditate
00:00 +3°C° 0 mm 5 m/s 760 mmHg 78%
01:00 +2°C° 0 mm 5 m/s 760 mmHg 77%
02:00 +2°C° 0 mm 5 m/s 760 mmHg 79%
03:00 +2°C° 0 mm 5 m/s 760 mmHg 81%
04:00 +1°C° 0 mm 4 m/s 760 mmHg 82%
05:00 +1°C° 0.3 mm 4 m/s 760 mmHg 85%
06:00 +1°C° 0.3 mm 4 m/s 760 mmHg 88%
07:00 +1°C° 0.3 mm 4 m/s 760 mmHg 92%
08:00 +3°C° 0.1 mm 4 m/s 760 mmHg 89%
09:00 +3°C° 0.1 mm 5 m/s 760 mmHg 86%
10:00 +5°C° 0.1 mm 5 m/s 760 mmHg 84%
11:00 +5°C° 0 mm 4 m/s 760 mmHg 85%
12:00 +5°C° 0 mm 4 m/s 760 mmHg 87%
13:00 +5°C° 0 mm 4 m/s 761 mmHg 88%
14:00 +6°C° 0 mm 4 m/s 761 mmHg 87%
15:00 +6°C° 0 mm 4 m/s 761 mmHg 86%
16:00 +7°C° 0 mm 4 m/s 761 mmHg 85%
17:00 +7°C° 0 mm 3 m/s 761 mmHg 88%
18:00 +7°C° 0 mm 3 m/s 761 mmHg 90%
19:00 +7°C° 0 mm 3 m/s 761 mmHg 93%
20:00 +5°C° 0 mm 3 m/s 761 mmHg 94%
21:00 +5°C° 0 mm 3 m/s 761 mmHg 94%
22:00 +6°C° 0 mm 2 m/s 761 mmHg 95%
23:00 +5°C° 0 mm 3 m/s 761 mmHg 95%

17 Aprilie, Sâmbătă

Timp Temperatura Precipitaţii Vânt Presiune Umiditate
00:00 +5°C° 0 mm 3 m/s 761 mmHg 95%
01:00 +5°C° 0 mm 3 m/s 761 mmHg 95%
02:00 +5°C° 0 mm 3 m/s 761 mmHg 95%
03:00 +5°C° 0 mm 3 m/s 761 mmHg 96%
04:00 +6°C° 0 mm 2 m/s 761 mmHg 96%
05:00 +5°C° 0 mm 3 m/s 761 mmHg 95%
06:00 +7°C° 0 mm 3 m/s 761 mmHg 95%
07:00 +7°C° 0 mm 3 m/s 761 mmHg 95%
08:00 +8°C° 0 mm 3 m/s 761 mmHg 91%
09:00 +9°C° 0 mm 3 m/s 761 mmHg 87%
10:00 +10°C° 0 mm 3 m/s 761 mmHg 82%
11:00 +10°C° 0 mm 3 m/s 761 mmHg 79%
12:00 +11°C° 0 mm 3 m/s 761 mmHg 76%
13:00 +12°C° 0 mm 3 m/s 761 mmHg 73%
14:00 +12°C° 0.4 mm 3 m/s 761 mmHg 73%
15:00 +12°C° 0.4 mm 3 m/s 761 mmHg 74%
16:00 +12°C° 0.4 mm 3 m/s 761 mmHg 74%
17:00 +11°C° 0.3 mm 3 m/s 761 mmHg 79%
18:00 +10°C° 0.3 mm 3 m/s 761 mmHg 84%
19:00 +9°C° 0.3 mm 3 m/s 761 mmHg 89%
20:00 +8°C° 0 mm 3 m/s 762 mmHg 90%
21:00 +8°C° 0 mm 3 m/s 762 mmHg 91%
22:00 +7°C° 0 mm 2 m/s 762 mmHg 92%
23:00 +7°C° 0 mm 2 m/s 762 mmHg 93%

18 Aprilie, Duminică

Timp Temperatura Precipitaţii Vânt Presiune Umiditate
00:00 +7°C° 0 mm 2 m/s 762 mmHg 93%
01:00 +7°C° 0 mm 2 m/s 762 mmHg 93%
02:00 +6°C° 0 mm 2 m/s 762 mmHg 94%
03:00 +6°C° 0 mm 2 m/s 762 mmHg 94%
04:00 +6°C° 0 mm 2 m/s 762 mmHg 94%
05:00 +7°C° 0.1 mm 2 m/s 762 mmHg 94%
06:00 +8°C° 0.1 mm 2 m/s 762 mmHg 93%
07:00 +8°C° 0.1 mm 3 m/s 762 mmHg 93%
08:00 +9°C° 0.6 mm 2 m/s 762 mmHg 93%
09:00 +9°C° 0.6 mm 2 m/s 762 mmHg 93%
10:00 +9°C° 0.6 mm 2 m/s 762 mmHg 93%
11:00 +10°C° 0.2 mm 1 m/s 762 mmHg 91%
12:00 +11°C° 0.2 mm 1 m/s 762 mmHg 89%
13:00 +11°C° 0.2 mm 1 m/s 762 mmHg 86%
14:00 +12°C° 0 mm 1 m/s 762 mmHg 81%
15:00 +13°C° 0 mm 1 m/s 762 mmHg 75%
16:00 +14°C° 0 mm 1 m/s 762 mmHg 70%
17:00 +13°C° 0 mm 2 m/s 762 mmHg 76%
18:00 +12°C° 0 mm 2 m/s 762 mmHg 81%
19:00 +9°C° 0 mm 2 m/s 762 mmHg 87%
20:00 +9°C° 0.1 mm 2 m/s 762 mmHg 88%
21:00 +9°C° 0.1 mm 2 m/s 762 mmHg 90%
22:00 +9°C° 0.1 mm 2 m/s 762 mmHg 92%
23:00 +9°C° 0.1 mm 2 m/s 762 mmHg 93%

19 Aprilie, Luni

Timp Temperatura Precipitaţii Vânt Presiune Umiditate
00:00 +9°C° 0.1 mm 2 m/s 762 mmHg 94%
01:00 +9°C° 0.1 mm 3 m/s 762 mmHg 95%
02:00 +8°C° 0 mm 3 m/s 762 mmHg 95%
03:00 +7°C° 0 mm 3 m/s 762 mmHg 95%
04:00 +7°C° 0 mm 3 m/s 762 mmHg 95%
05:00 +8°C° 0 mm 3 m/s 763 mmHg 91%
06:00 +7°C° 0 mm 4 m/s 763 mmHg 88%
07:00 +8°C° 0 mm 4 m/s 763 mmHg 84%
08:00 +9°C° 0 mm 5 m/s 763 mmHg 76%
09:00 +10°C° 0 mm 5 m/s 763 mmHg 68%
10:00 +12°C° 0 mm 5 m/s 763 mmHg 60%
11:00 +12°C° 0 mm 5 m/s 763 mmHg 60%
12:00 +13°C° 0 mm 5 m/s 762 mmHg 61%
13:00 +13°C° 0 mm 4 m/s 762 mmHg 61%
14:00 +13°C° 0 mm 4 m/s 762 mmHg 63%
15:00 +13°C° 0 mm 4 m/s 762 mmHg 66%
16:00 +13°C° 0 mm 4 m/s 762 mmHg 68%
17:00 +12°C° 0 mm 4 m/s 762 mmHg 71%
18:00 +11°C° 0 mm 3 m/s 761 mmHg 74%
19:00 +10°C° 0 mm 3 m/s 761 mmHg 77%
20:00 +10°C° 0 mm 3 m/s 761 mmHg 76%
21:00 +10°C° 0 mm 3 m/s 761 mmHg 76%
22:00 +10°C° 0 mm 3 m/s 761 mmHg 76%
23:00 +10°C° 0 mm 3 m/s 761 mmHg 75%
Arată mai mult

Formular de consimțământ

Meteoprog și furnizorii noștri de servicii pot stoca și accesa date personale, precum cookies, identificatori de dispozitiv sau alte tehnologii similare pe dispozitivul dumneavoastră și procesa astfel de date pentru a personaliza conținutul și reclamele, dar și pentru a oferi caracteristici de social media și pentru a analiza traficul.

  • Stocarea și/sau accesarea informațiilor pe dispozitivul dumneavoastră

    Cookies, identificatori de dispozitiv sau alte informații pot fi stocate sau accesate pe dispozitiv în scopurile indicate mai sus.

  • Reclame și conținut personalizat, evaluarea reclamelor și a conținutului, informații despre audiențe și dezvoltarea produselor

    Reclamele și conținutul pot fi personalizate pe baza unui profil. Pot fi adăugate date suplimentare pentru a personaliza mai bine reclamele și conținutul. Performanța reclamelor și conținutului poate fi măsurată. Pot fi obținute informații despre utilizatorii care au văzut reclamele și conținutul. Aceste date pot fi utilizate pentru a dezvolta sau îmbunătăți experiența utilizatorilor, sistemele și software-ul.

Dând clic pe ‘Sunt de acord’, permiteți utilizarea cookie-urilor menționate, a identificatorilor de dispozitiv, balizelor web sau altor tehnologii similare. Setările pot fi modificate din browser-ul dispozitivului dumneavoastră.

În anumite scopuri, interesele legitime pot prima asupra consimțământului. Puteți citi mai multe informații în acest sens în Politica privind Confidențialitatea Datelor și Cookie.